FENGYUN 1C DEB

Satellite information

Favourite Embed

Satellite Type and Status

DEBRISIN ORBIT

Key statistics

Satellite FENGYUN 1C DEB at a glance.

Uptime

9553

Days in orbit

Revolutions

≈ 14.4

Per day

Orbit

SSO

Sun Synchronous Orbit

Inclination

98.9

Latest

Satellite identification and parameters

Extended collection of information and parameters for FENGYUN 1C DEB.

Object identification

Identified? True

Debris? True

Object name: FENGYUN 1C DEB

International designator: 1999-025EPD

Object number (NORAD): 37928

Object ID (CCSDS): 37928

Country: PEOPLES REPUBLIC OF CHINA (PRC)

Current information (Y/N): Y

RCS size: SMALL

Orbital parameters

Period: 100.251 minutes

Inclination: 98.9376 deg

SMA: 7148.555 km

Apoapsis: 822.914 km

Periapsis: 717.926 km

RAAN: 54.1619 deg

Eccentricy: 0.0073433

Argument of periapsis: 146.3294 deg

Mean anomaly: 214.2588 deg

Mean motion: 14.36399897 rev/day

Mean motion (dot): 0.00001149 rev/day2

B* drag term: 0.00039589 1/REarth

Two-line elements (TLE)

Creation date: July 4, 2025, 6:39 p.m.

Reference frame: TEME

Reference center: EARTH

Epoch: July 4, 2025, 10:48 a.m. UTC

TLE line 0: 0 FENGYUN 1C DEB

TLE line 1: 1 37928U 99025EPD 25185.45056766 .00001149 00000-0 39589-3 0 9996

TLE line 2: 2 37928 98.9376 54.1619 0073433 146.3294 214.2588 14.36399897788763

Live tracking on map

Real-time ground track for satellite FENGYUN 1C DEB.

In-orbit conjunctions

A list of the most updated potential collisions computed for object FENGYUN 1C DEB.

Target Orbit TCA Probability of collision Miss distance Type
FENGYUN 1C DEB SSO 2024-11-13 11:59:44 0.0009882699 125.0 (m) DEBRIS
CZ-6A DEB LEO 2024-11-12 19:52:23 0.0001819832 358.0 (m) DEBRIS
COSMOS 374 DEB LEO 2024-11-09 15:33:51 0.0007446192 283.0 (m) DEBRIS
ADEOS SSO 2024-09-26 18:35:24 0.000108348 827.0 (m) PAYLOAD
ARIANE 4O DEB SSO 2024-07-25 02:02:41 0.0001722252 150.0 (m) DEBRIS

Associated space launch

Chinese polar orbiting meteorological satellite

FENGYUN 1C DEB was lifted into orbit during the mission ‘Long March 4B | Feng Yun 1C’, on board a Long March 4B space rocket.

The launch took place on May 10, 1999, 1:33 a.m. from Launch Complex 7.

For more information about the launch, click the button.

Launch to space Long March 4B | Feng Yun 1C
Long March 4B | Feng Yun 1C

Agency: N/A

Status: Launch Successful

Launch date: May 10, 1999, 1:33 a.m. UTC

Rocket: Long March 4B

Launch pad: Launch Complex 7

Location: Taiyuan Satellite Launch Center, People's Republic of China

...

Latest news about this satellite

There are no fresh news available about this satellite. Check back as we update our databases every day.


Newsletter sign-up

Weekly statistics, charts and insights to help you stay on top of the space industry.